Debrecen, Hungary

4:49 PM CEST on March 27, 2017 (GMT +0200)
Debrecen

Weather History for LHDC - November, 2013

Change the Weather History Date:

Friday, November 29, 2013

  Actual Average Record
Temperature  
Mean Temperature 35 °F -  
Max Temperature 40 °F 37 °F - ()
Min Temperature 30 °F 27 °F - ()
Degree Days  
Heating Degree Days 30    
Moisture  
Dew Point 31 °F    
Average Humidity 85    
Maximum Humidity 93    
Minimum Humidity 66    
Precipitation  
Precipitation 0.00 in 0.06 in - ()
Sea Level Pressure  
Sea Level Pressure 30.15 in    
Wind  
Wind Speed 8 mph ()    
Max Wind Speed 13 mph    
Max Gust Speed -    
Visibility 3.4 miles    
Events      
T = Trace of Precipitation, MM = Missing Value Source: Averaged Metar Reports

Daily Weather History Graph

Daily Weather History Graph

Search for Another Location

Airport or City:

Trip Planner

Search our weather history database for the weather conditions in past years. The results will help you decide how hot, cold, wet, or windy it might be!

Date:

Astronomy

Nov. 29, 2013 Rise Set
Actual Time 6:57 AM CET 3:45 PM CET
Civil Twilight 6:22 AM CET 4:20 PM CET
Nautical Twilight 5:44 AM CET 4:58 PM CET
Astronomical Twilight 5:07 AM CET 5:35 PM CET
Moon 2:28 AM CET (11/29) 1:32 PM CET (11/29)
Length of Visible Light 9h 57m
Length of Day
8h 47m
Waning Crescent, 16% of the Moon is Illuminated
Nov 29
Waning Crescent
Dec 3
New
Dec 9
First Quarter
Dec 17
Full
Dec 25
Last Quarter

Hourly Weather History & Observations

Time (CET) Temp. Windchill Dew Point Humidity Pressure Visibility Wind Dir Wind Speed Gust Speed Precip Events Conditions
1:00 AM 32 °F - 29 °F 84% 30.18 in - SSW 11.2 mph - -  
5:15 AM 32.0 °F 23.0 °F 30.2 °F 93% 30.12 in - SSW 11.5 mph - N/A   Clear
5:45 AM 32.0 °F 23.0 °F 30.2 °F 93% 30.12 in - SW 11.5 mph - N/A   Clear
6:00 AM - - - N/A% - - SSW 10.4 mph - N/A   Dust Whirls
6:15 AM 30.2 °F 23.4 °F 28.4 °F 93% 30.15 in - SSW 6.9 mph - N/A   Clear
6:45 AM 30.2 °F 26.7 °F 28.4 °F 93% 30.15 in 3.7 mi SW 3.5 mph - N/A   Mostly Cloudy
7:00 AM 31 °F - 29 °F 88% 30.18 in 4 mi SW 4.5 mph - -   Partly Cloudy
7:15 AM 30.2 °F 26.7 °F 28.4 °F 93% 30.15 in 3.7 mi South 3.5 mph - N/A   Mostly Cloudy
7:45 AM 30.2 °F 23.4 °F 28.4 °F 93% 30.15 in 3.7 mi SSW 6.9 mph - N/A   Mostly Cloudy
7:49 AM 30.2 °F 23.4 °F 28.4 °F 93% 30.18 in 2.5 mi South 6.9 mph - N/A   Mostly Cloudy
7:53 AM - - - N/A% - 1.9 mi SSW 4.6 mph - N/A   Scattered Clouds
8:15 AM 32.0 °F 26.4 °F 30.2 °F 93% 30.18 in 2.2 mi South 5.8 mph - N/A   Mostly Cloudy
8:45 AM 32.0 °F 25.6 °F 30.2 °F 93% 30.18 in - South 6.9 mph - N/A   Mostly Cloudy
9:00 AM - - - N/A% - 2.5 mi SSW 10.4 mph - N/A   Mostly Cloudy
9:15 AM 33.8 °F 26.4 °F 30.2 °F 87% 30.18 in - South 9.2 mph - N/A   Mostly Cloudy
9:45 AM 33.8 °F 27.0 °F 32.0 °F 93% 30.18 in 2.5 mi South 8.1 mph - N/A   Mostly Cloudy
10:15 AM 35.6 °F 29.9 °F 32.0 °F 87% 30.18 in 2.5 mi SSW 6.9 mph - N/A   Scattered Clouds
10:45 AM 37.4 °F 32.1 °F 32.0 °F 81% 30.18 in 2.8 mi South 6.9 mph - N/A   Mostly Cloudy
11:15 AM 37.4 °F 32.1 °F 32.0 °F 81% 30.18 in 2.8 mi South 6.9 mph - N/A   Mostly Cloudy
11:45 AM 39.2 °F 33.6 °F 32.0 °F 75% 30.15 in 2.8 mi South 8.1 mph - N/A   Mostly Cloudy
12:00 PM - - - N/A% - 3.1 mi South 9.2 mph - N/A   Scattered Clouds
12:15 PM 39.2 °F 33.0 °F 32.0 °F 75% 30.15 in 2.8 mi South 9.2 mph - N/A   Scattered Clouds
12:45 PM 39.2 °F 33.0 °F 32.0 °F 75% 30.15 in 2.8 mi South 9.2 mph - N/A   Scattered Clouds
1:00 PM 40 °F - 33 °F 66% 30.17 in 3 mi South 8.9 mph - -   Mist
1:15 PM 39.2 °F 33.6 °F 32.0 °F 75% 30.15 in - South 8.1 mph - N/A   Scattered Clouds
1:25 PM 39.2 °F 33.0 °F 32.0 °F 75% 30.15 in 3.7 mi South 9.2 mph - N/A   Scattered Clouds
1:45 PM 39.2 °F 33.0 °F 32.0 °F 75% 30.15 in 4.3 mi South 9.2 mph - N/A   Scattered Clouds
2:15 PM 39.2 °F 33.6 °F 33.8 °F 81% 30.12 in 6.2 mi South 8.1 mph - N/A   Mostly Cloudy
2:45 PM 39.2 °F 33.6 °F 33.8 °F 81% 30.15 in 3.7 mi SSE 8.1 mph - N/A   Mostly Cloudy
3:15 PM 37.4 °F 29.3 °F 33.8 °F 87% 30.12 in 3.7 mi SSE 12.7 mph - N/A   Mostly Cloudy
3:45 PM 37.4 °F 29.3 °F 33.8 °F 87% 30.12 in 4.3 mi SSE 12.7 mph - N/A   Mostly Cloudy
4:15 PM 35.6 °F 28.0 °F 33.8 °F 93% 30.12 in 5.0 mi SSE 10.4 mph - N/A   Scattered Clouds
4:45 PM 35.6 °F 27.5 °F 32.0 °F 87% 30.12 in 4.3 mi South 11.5 mph - N/A   Scattered Clouds
5:00 PM - - - N/A% - - North - - N/A   Unknown
7:00 PM 34 °F - 31 °F 86% 30.14 in - South 13.4 mph - -